Temp
75 79 82 83 83 83 83 83 83 83 83 83 83 83 83 83 83 83 83 83 83 83 83 83 84 84 83 83 83 83 83 82 83 83 83 83 83 83 83 83 83 82 82
78 80 82 83 83 83 83 83 83 83 83 83 83 83 83 83 83 83 83 83 83 83 83 83 84 84 84 83 83 83 83 83 83 84 84 84 83 83 83 83 83 82 82
79 81 82 82 83 83 83 83 83 83 83 83 83 84 84 84 83 83 83 83 83 84 84 84 84 84 83 83 83 83 83 83 84 84 83 78 80 84 83 83 83 82 82
80 80 82 82 83 83 83 83 83 84 83 83 83 83 84 83 83 84 84 84 84 84 84 84 84 84 83 82 82 83 83 84 84 82 77 80 82 84 83 83 83 82 82
78 79 81 82 83 83 83 83 83 83 83 83 83 83 84 84 84 84 84 84 84 84 84 84 83 83 83 83 83 84 82 83 83 81 75 75 76 83 83 83 82 82 82
77 78 82 83 83 84 83 84 84 83 84 84 84 84 84 84 84 84 84 84 84 84 84 84 83 83 83 83 83 83 83 83 83 78 76 77 77 83 83 83 83 83 82
77 79 81 83 83 84 84 84 84 84 84 84 84 84 84 84 84 84 84 84 84 84 84 84 83 83 83 83 83 83 83 84 78 77 76 75 77 82 83 83 82 82 82
78 79 81 83 83 83 84 84 84 84 84 84 84 84 84 84 84 84 84 84 84 84 84 83 83 83 83 82 82 83 83 83 79 77 76 75 79 82 83 83 82 82 82
80 79 79 80 82 84 84 84 84 84 84 84 84 84 84 84 84 84 84 84 84 84 84 84 83 83 82 82 83 83 83 83 75 74 78 75 80 83 83 83 83 83 82
78 78 76 77 78 78 80 84 84 84 84 84 84 84 84 84 84 84 83 83 84 84 84 84 83 83 82 83 83 83 83 83 76 74 74 75 80 83 83 83 82 82 82
77 76 74 75 75 75 77 81 84 84 84 84 83 84 83 76 78 79 80 83 83 84 84 84 84 83 83 83 83 83 84 75 74 75 75 79 80 83 83 82 82 82 82
74 75 76 75 75 75 82 77 76 79 77 76 76 78 75 75 74 76 80 84 85 85 85 84 84 84 84 77 77 82 77 75 74 74 75 79 81 83 83 82 82 82 82
77 78 77 77 77 77 79 76 74 75 75 75 75 74 74 75 76 76 73 76 75 80 77 79 78 79 78 76 75 75 74 75 73 74 79 80 82 83 84 83 82 82 82
77 79 79 79 79 79 80 77 77 76 75 74 74 74 74 75 74 73 72 72 73 73 72 72 72 74 75 76 75 73 74 74 71 74 75 81 82 83 83 83 82 82 82
78 80 80 81 79 80 77 76 75 75 77 77 74 75 76 74 72 72 72 72 73 72 72 71 72 73 74 73 75 75 76 73 74 73 72 80 79 80 83 83 82 82 82
82 82 82 82 80 80 78 75 76 77 78 76 75 76 75 76 73 72 71 71 72 73 73 73 73 72 72 74 76 76 75 77 73 73 74 78 80 80 81 83 83 82 83
83 83 83 82 80 79 78 77 76 76 78 76 76 75 77 75 73 73 72 71 72 72 73 73 72 73 72 74 73 74 76 77 76 73 75 75 79 81 82 82 83 82 82
82 79 77 85 80 79 77 77 79 77 76 77 76 77 75 75 75 73 71 71 72 72 72 71 71 71 70 71 71 73 75 77 77 75 73 77 78 81 81 82 82 82 82
79 75 74 77 77 77 76 77 77 78 77 77 78 73 76 76 75 74 73 73 72 72 72 72 71 71 71 71 71 72 73 73 76 79 77 74 78 80 80 81 82 82 83
78 76 75 75 77 76 74 75 75 75 76 75 74 74 75 73 72 71 73 72 73 72 73 72 72 71 71 71 72 72 73 73 74 73 74 79 77 79 79 79 80 81 82
74 73 73 73 74 73 72 73 73 73 73 73 73 73 74 74 75 74 72 73 72 72 72 72 71 71 71 72 71 70 71 72 73 73 72 72 77 80 76 79 78 79 80
75 71 71 71 74 74 74 74 74 74 73 72 73 74 76 76 75 75 73 73 73 72 72 72 72 70 70 70 69 67 66 68 71 75 75 74 74 75 77 76 78 76 75
73 73 71 71 73 74 76 75 74 73 72 71 72 73 75 76 75 73 72 72 71 71 71 72 71 70 68 70 70 68 65 64 68 71 72 74 73 72 73 73 75 79 77
75 75 73 72 72 75 76 75 72 71 70 71 73 73 74 75 74 74 76 73 73 71 72 72 72 71 69 68 70 71 71 70 66 65 70 71 71 72 72 72 75 75 79
80 77 75 73 74 75 76 73 72 72 72 72 71 73 74 74 73 77 75 74 73 71 72 71 71 71 70 69 70 70 70 70 70 67 66 68 71 72 73 73 72 73 74
80 79 77 75 75 76 75 75 74 73 73 71 71 71 73 71 72 73 75 73 72 71 71 71 71 71 70 70 71 71 70 68 68 68 67 68 67 71 71 72 72 73 73
MSLP
1014.16 1014.06 1014.09 1014.30 1014.50 1014.65 1014.81 1014.85 1014.91 1014.97 1015.07 1015.27 1015.49 1015.56 1015.78 1015.91 1016.17 1016.17 1016.24 1016.45 1016.57 1016.71 1016.70 1016.78 1016.84 1016.89 1017.02 1017.03 1017.03 1017.08 1017.05 1017.10 1017.10 1017.23 1017.30 1017.33 1017.43 1017.48 1017.44 1017.51 1017.53 1017.67 1017.72
1013.60 1013.88 1014.04 1014.31 1014.61 1014.78 1015.01 1015.11 1015.08 1015.12 1015.31 1015.50 1015.67 1015.81 1016.04 1016.17 1016.19 1016.25 1016.50 1016.66 1016.71 1016.88 1016.95 1016.93 1016.87 1016.97 1017.17 1017.32 1017.22 1017.18 1017.23 1017.26 1017.23 1017.42 1017.50 1017.48 1017.54 1017.65 1017.71 1017.71 1017.79 1017.94 1018.04
1013.76 1013.91 1014.12 1014.42 1014.72 1014.87 1015.07 1015.23 1015.28 1015.29 1015.51 1015.71 1015.87 1016.08 1016.22 1016.31 1016.41 1016.39 1016.52 1016.72 1016.90 1016.95 1017.04 1017.02 1017.02 1017.14 1017.19 1017.34 1017.38 1017.40 1017.30 1017.33 1017.32 1017.51 1017.71 1017.70 1017.69 1017.72 1017.97 1018.00 1018.09 1018.19 1018.25
1013.67 1014.04 1014.29 1014.56 1014.80 1014.91 1015.12 1015.35 1015.47 1015.48 1015.66 1015.79 1015.98 1016.18 1016.26 1016.38 1016.58 1016.63 1016.76 1016.86 1016.89 1016.99 1017.08 1017.12 1017.17 1017.26 1017.38 1017.49 1017.51 1017.44 1017.46 1017.56 1017.54 1017.70 1017.88 1017.95 1017.78 1017.89 1018.05 1018.18 1018.35 1018.45 1018.54
1013.76 1014.16 1014.36 1014.61 1014.91 1015.06 1015.22 1015.43 1015.59 1015.67 1015.75 1015.86 1016.14 1016.32 1016.41 1016.48 1016.61 1016.79 1016.93 1016.89 1016.90 1017.01 1017.17 1017.30 1017.30 1017.36 1017.40 1017.47 1017.53 1017.49 1017.57 1017.74 1017.83 1018.00 1018.18 1018.15 1018.16 1018.14 1018.25 1018.43 1018.54 1018.65 1018.77
1014.05 1014.27 1014.42 1014.67 1014.93 1015.13 1015.34 1015.46 1015.52 1015.69 1015.83 1015.99 1016.26 1016.49 1016.55 1016.69 1016.82 1016.91 1016.95 1016.98 1017.00 1017.06 1017.19 1017.24 1017.34 1017.42 1017.47 1017.55 1017.54 1017.64 1017.70 1017.78 1017.78 1017.93 1018.08 1018.29 1018.28 1018.17 1018.26 1018.49 1018.64 1018.72 1018.83
1014.26 1014.31 1014.45 1014.68 1014.92 1015.09 1015.27 1015.47 1015.59 1015.80 1016.04 1016.17 1016.26 1016.45 1016.55 1016.68 1016.83 1016.94 1017.01 1017.05 1017.12 1017.12 1017.23 1017.26 1017.32 1017.42 1017.49 1017.60 1017.68 1017.70 1017.80 1017.66 1017.58 1017.76 1017.96 1018.18 1018.36 1018.25 1018.33 1018.50 1018.82 1018.94 1019.05
1014.21 1014.40 1014.51 1014.69 1014.92 1015.08 1015.28 1015.55 1015.75 1015.95 1016.15 1016.26 1016.31 1016.42 1016.63 1016.77 1016.89 1016.98 1017.01 1017.05 1017.14 1017.21 1017.27 1017.30 1017.32 1017.38 1017.48 1017.54 1017.64 1017.81 1017.78 1017.66 1017.68 1017.80 1018.00 1018.14 1018.14 1018.15 1018.25 1018.57 1018.84 1019.07 1019.15
1014.23 1014.47 1014.67 1014.89 1014.94 1015.14 1015.46 1015.62 1015.74 1015.95 1016.16 1016.28 1016.42 1016.58 1016.73 1016.85 1016.94 1017.06 1017.10 1017.08 1017.01 1017.10 1017.24 1017.28 1017.30 1017.37 1017.41 1017.44 1017.48 1017.69 1017.73 1017.71 1017.98 1018.11 1018.08 1018.09 1018.06 1018.18 1018.28 1018.51 1018.76 1019.00 1019.22
1014.45 1014.62 1014.93 1015.09 1015.16 1015.30 1015.50 1015.66 1015.88 1015.98 1016.06 1016.20 1016.35 1016.62 1016.80 1016.86 1016.94 1017.00 1017.07 1017.05 1017.01 1016.98 1017.06 1017.20 1017.18 1017.17 1017.35 1017.43 1017.44 1017.53 1017.70 1017.73 1017.96 1018.03 1018.22 1018.29 1018.22 1018.25 1018.37 1018.35 1018.62 1018.93 1019.29
1014.66 1014.91 1015.10 1015.23 1015.42 1015.58 1015.68 1015.74 1015.83 1015.91 1016.02 1016.16 1016.36 1016.50 1016.63 1016.94 1016.88 1016.93 1017.08 1017.08 1017.04 1016.97 1016.98 1017.05 1017.11 1017.07 1017.12 1017.18 1017.28 1017.42 1017.55 1017.87 1018.01 1018.09 1018.14 1018.08 1018.24 1018.33 1018.37 1018.29 1018.46 1018.75 1019.08
1014.47 1014.85 1015.05 1015.07 1015.39 1015.64 1015.55 1015.68 1015.77 1015.88 1016.03 1016.18 1016.37 1016.43 1016.61 1016.66 1016.67 1016.87 1016.96 1016.89 1016.94 1016.92 1016.86 1017.00 1017.08 1017.04 1016.93 1017.08 1017.10 1017.05 1017.26 1017.60 1017.89 1018.00 1017.93 1017.73 1017.99 1018.07 1018.16 1018.28 1018.36 1018.54 1018.74
1013.69 1014.30 1014.68 1014.84 1014.98 1015.24 1015.21 1015.51 1015.80 1015.85 1015.86 1015.98 1016.15 1016.19 1016.27 1016.40 1016.48 1016.66 1016.90 1016.84 1016.86 1016.81 1016.89 1016.88 1016.99 1016.86 1016.79 1016.81 1016.89 1017.02 1017.11 1017.30 1017.64 1017.70 1017.42 1017.44 1017.50 1017.68 1017.92 1018.13 1018.32 1018.39 1018.53
1013.40 1013.66 1014.17 1014.41 1014.57 1014.68 1014.82 1015.23 1015.50 1015.71 1015.68 1015.81 1015.95 1016.03 1016.19 1016.35 1016.45 1016.57 1016.84 1016.72 1016.69 1016.68 1016.74 1016.78 1016.88 1016.76 1016.63 1016.55 1016.64 1016.86 1016.89 1016.95 1017.14 1017.35 1017.34 1017.31 1017.47 1017.42 1017.57 1018.00 1018.17 1018.22 1018.28
1012.63 1013.05 1013.55 1014.02 1014.28 1014.25 1014.61 1014.97 1015.39 1015.56 1015.62 1015.59 1015.76 1015.88 1015.95 1016.08 1016.22 1016.25 1016.51 1016.54 1016.40 1016.52 1016.50 1016.59 1016.51 1016.51 1016.46 1016.45 1016.43 1016.43 1016.45 1016.61 1016.80 1016.95 1017.01 1017.08 1017.19 1017.38 1017.51 1017.73 1017.94 1017.94 1018.07
1011.88 1012.35 1012.86 1013.54 1013.93 1014.01 1014.37 1014.61 1014.95 1015.09 1015.08 1015.27 1015.35 1015.38 1015.54 1015.60 1015.79 1015.81 1016.08 1016.47 1016.39 1016.00 1015.99 1016.19 1016.21 1016.30 1016.26 1016.11 1016.03 1015.83 1015.85 1016.03 1016.36 1016.54 1016.49 1016.46 1016.56 1016.44 1016.84 1017.12 1017.31 1017.49 1017.66
1012.12 1012.48 1012.62 1013.12 1013.44 1013.77 1014.13 1014.30 1014.44 1014.52 1014.49 1014.83 1014.79 1014.89 1015.04 1015.40 1015.54 1015.46 1015.51 1015.80 1015.74 1015.72 1015.62 1015.77 1015.84 1015.85 1016.05 1015.75 1015.65 1015.43 1015.27 1015.22 1015.41 1015.90 1016.14 1016.11 1016.02 1015.98 1016.06 1016.55 1016.74 1016.96 1017.09
1011.62 1012.48 1012.44 1012.74 1013.29 1013.62 1013.92 1013.97 1013.70 1013.70 1014.08 1014.25 1014.33 1014.63 1015.46 1015.66 1015.67 1015.66 1015.78 1015.47 1015.17 1015.07 1015.19 1015.41 1015.49 1015.67 1015.68 1015.65 1015.44 1015.26 1015.12 1014.77 1014.69 1014.92 1015.40 1015.53 1015.50 1015.31 1015.40 1015.79 1016.04 1016.33 1016.50
1011.57 1012.15 1012.43 1012.66 1013.11 1013.44 1013.54 1013.48 1013.30 1013.32 1013.55 1013.92 1014.25 1014.75 1014.44 1014.45 1014.65 1014.83 1014.59 1014.70 1015.25 1015.08 1014.73 1015.02 1015.18 1015.42 1015.32 1015.27 1015.16 1014.97 1014.72 1014.60 1014.55 1014.44 1014.58 1014.83 1014.86 1014.87 1014.86 1015.03 1015.24 1015.43 1015.76
1011.14 1012.05 1012.60 1012.81 1013.02 1013.33 1013.43 1013.58 1013.58 1013.62 1013.68 1014.02 1014.36 1014.53 1014.08 1014.19 1014.29 1014.28 1014.03 1014.57 1014.25 1015.10 1015.10 1014.56 1014.77 1014.99 1014.94 1014.79 1014.66 1014.54 1014.34 1014.29 1014.26 1014.13 1014.14 1014.10 1014.23 1014.29 1014.37 1014.45 1014.53 1014.82 1014.95
1011.56 1012.16 1012.52 1012.97 1013.02 1013.31 1013.77 1013.89 1013.99 1014.00 1014.00 1014.14 1014.15 1014.52 1014.27 1014.13 1014.36 1014.18 1013.93 1014.21 1014.23 1014.89 1014.42 1014.51 1014.65 1014.82 1014.52 1014.44 1014.55 1014.13 1013.91 1013.77 1013.71 1013.55 1013.46 1013.57 1013.68 1013.55 1013.85 1013.92 1014.06 1014.16 1014.05
1011.20 1011.90 1012.38 1013.11 1013.10 1013.16 1013.38 1013.55 1013.61 1013.78 1014.07 1013.98 1013.78 1013.87 1013.90 1014.08 1014.30 1013.89 1013.89 1014.09 1014.16 1014.17 1014.20 1014.26 1014.40 1014.53 1014.27 1014.26 1014.38 1014.20 1013.65 1013.05 1012.69 1012.58 1012.72 1012.78 1012.77 1012.95 1013.05 1013.35 1013.28 1013.43 1013.51
1011.55 1011.81 1012.31 1012.68 1012.81 1012.83 1013.17 1013.49 1013.84 1014.04 1014.03 1013.89 1013.69 1013.64 1013.54 1013.63 1013.85 1014.16 1014.10 1014.12 1014.06 1014.28 1014.47 1014.28 1014.37 1014.34 1014.22 1013.96 1013.98 1013.84 1013.40 1012.92 1012.44 1011.93 1012.08 1012.00 1012.03 1012.43 1012.70 1012.78 1012.60 1012.53 1012.77
1010.84 1011.36 1012.02 1012.58 1012.70 1012.76 1013.06 1013.54 1013.87 1014.09 1014.30 1014.02 1013.83 1013.50 1013.61 1013.71 1013.95 1013.90 1013.80 1013.93 1014.16 1014.32 1014.36 1014.16 1014.06 1014.01 1013.97 1013.78 1013.37 1012.97 1012.64 1012.46 1012.38 1012.16 1011.89 1011.81 1011.86 1012.00 1012.13 1012.16 1012.06 1012.01 1011.83
1010.50 1010.90 1011.51 1012.31 1012.68 1012.83 1013.05 1013.38 1013.78 1013.90 1014.15 1013.95 1013.95 1013.98 1013.89 1013.92 1014.11 1013.93 1013.93 1014.00 1014.35 1014.45 1014.22 1013.91 1013.83 1013.77 1013.56 1013.41 1012.57 1012.12 1011.95 1011.96 1012.17 1012.48 1012.02 1011.72 1011.52 1011.31 1011.32 1011.46 1011.53 1011.46 1011.67
1010.27 1011.00 1011.65 1012.13 1012.34 1012.53 1012.85 1013.13 1013.45 1013.86 1014.05 1014.16 1014.38 1014.53 1014.51 1014.39 1014.38 1014.18 1014.17 1014.20 1014.21 1014.24 1013.94 1013.68 1013.56 1013.48 1013.24 1013.05 1012.44 1011.77 1011.43 1011.36 1011.50 1011.84 1012.02 1011.88 1011.76 1011.07 1010.86 1010.90 1010.89 1010.86 1011.02
Wind_Speed
7 8 14 17 17 16 15 14 14 15 16 15 15 17 17 15 15 15 14 12 11 12 12 11 12 11 10 10 11 10 11 12 14 15 15 14 13 12 11 14 13 9 12
12 11 16 18 18 16 16 14 14 15 14 15 14 15 15 14 14 14 13 11 11 11 11 11 11 12 12 10 10 11 11 11 13 14 13 12 11 10 12 13 12 9 12
13 11 15 18 18 16 16 15 14 15 14 13 14 14 14 14 13 14 14 11 11 12 11 11 10 11 10 10 10 9 11 12 13 13 11 4 5 11 12 13 12 12 12
13 10 14 17 17 16 16 15 14 15 14 14 13 12 13 13 13 13 14 13 12 12 11 10 9 9 8 9 9 9 9 9 9 13 3 3 7 13 12 12 12 11 11
12 10 14 18 17 17 16 14 14 13 14 13 14 13 13 13 14 15 13 13 13 12 10 10 8 7 8 8 7 7 9 9 6 4 2 1 4 9 12 12 11 12 11
12 11 16 19 18 17 16 15 13 13 14 14 13 13 13 13 12 13 13 12 13 12 11 11 8 7 7 8 6 5 3 0 3 4 3 5 4 12 12 11 11 10 11
12 11 14 17 17 17 16 14 14 14 14 13 14 13 13 13 13 13 12 11 11 11 11 11 9 7 6 6 5 3 3 2 3 4 6 6 5 11 13 10 9 9 10
14 11 12 18 17 16 17 15 15 15 13 11 11 12 12 11 12 11 11 10 10 10 10 10 10 7 5 2 1 3 2 4 5 5 5 5 8 12 12 11 11 11 10
13 11 9 10 14 18 14 14 16 15 14 13 12 12 11 11 11 11 10 9 10 9 9 10 9 8 6 4 4 1 0 1 4 2 2 3 11 13 14 13 12 11 12
12 9 6 6 6 7 8 15 15 14 14 13 12 11 12 12 12 11 10 10 11 10 9 9 9 10 8 7 7 6 3 2 4 5 4 3 10 14 15 15 13 12 12
9 8 6 5 5 5 5 8 12 14 13 13 11 11 10 4 6 8 8 9 9 10 10 10 10 10 10 10 9 9 8 1 2 3 3 10 13 15 14 15 15 13 13
13 11 9 8 7 6 7 6 6 6 4 4 5 6 4 5 5 6 9 11 10 10 10 10 10 10 9 4 3 9 2 4 3 4 3 16 16 16 15 15 16 15 15
16 12 13 12 10 10 7 4 3 3 3 4 6 6 5 4 4 3 3 3 3 7 3 5 5 4 6 4 4 4 4 4 3 3 5 14 17 17 16 17 17 17 17
15 15 14 13 13 12 7 6 6 5 4 3 4 6 4 3 3 4 3 4 4 3 5 4 3 5 6 6 6 5 6 5 3 3 5 14 15 17 17 18 19 19 18
16 15 16 14 12 12 8 5 4 4 4 4 4 5 5 4 5 4 4 4 4 3 4 4 5 4 5 5 5 6 7 6 6 4 4 16 10 13 16 19 20 20 20
16 17 16 14 11 9 9 6 5 5 6 5 5 7 7 6 4 5 4 5 5 4 4 4 4 4 4 4 5 6 7 7 6 7 7 9 22 23 21 22 22 21 21
6 10 16 13 12 11 9 7 5 5 5 4 5 7 9 7 6 7 4 5 6 4 5 4 5 4 4 5 6 6 5 7 6 6 7 7 12 23 23 23 22 22 22
12 10 9 11 10 10 7 6 5 5 4 4 5 4 2 2 5 4 4 5 4 4 4 4 4 4 4 5 5 5 5 5 7 6 6 7 8 8 16 23 24 23 24
9 10 8 7 9 8 6 4 4 4 2 3 2 5 4 5 4 5 7 5 3 4 5 4 3 4 5 6 6 5 5 6 6 6 7 7 10 10 8 19 26 25 25
10 7 6 5 7 6 3 2 1 2 2 3 3 3 5 5 6 7 8 4 6 4 7 3 5 4 5 6 5 6 6 6 5 6 7 7 7 11 11 11 11 14 24
6 8 8 7 6 5 2 2 1 3 1 2 2 6 6 5 6 5 3 4 4 4 7 4 1 4 5 5 4 4 6 8 8 7 6 6 8 9 10 11 8 7 10
12 7 7 6 6 4 3 2 2 2 1 3 2 5 6 6 4 2 2 2 2 1 4 2 1 2 3 3 3 2 4 3 7 10 9 9 11 7 7 10 10 10 9
9 10 9 9 8 5 5 2 2 3 2 2 1 3 3 2 2 2 2 2 3 2 3 3 2 3 3 3 7 4 2 5 1 2 8 8 9 6 6 6 9 11 11
10 6 7 7 7 6 6 3 3 3 3 2 2 2 4 2 2 2 3 2 2 2 4 3 3 3 3 5 3 8 10 3 2 3 1 4 4 6 6 6 8 11 12
9 8 6 7 7 6 6 5 4 2 1 0 2 4 2 1 2 1 3 3 3 2 4 4 4 4 4 3 8 5 7 8 8 4 3 3 2 4 6 6 7 5 8
9 8 7 8 6 7 7 6 7 5 4 3 3 4 4 4 4 5 5 2 3 3 4 4 4 5 5 5 6 7 5 2 6 6 5 4 4 4 4 5 5 6 5
Wind_Direction
160 158 149 140 134 129 124 120 116 110 105 109 110 105 106 110 118 116 113 121 126 118 121 124 119 113 106 114 115 116 113 111 114 115 113 111 111 113 112 111 111 111 105
143 151 148 142 138 135 132 129 120 113 111 112 117 114 113 114 110 119 116 111 116 120 128 116 114 115 116 117 115 122 115 113 113 113 114 116 124 127 129 122 118 117 117
140 148 146 144 142 140 132 130 120 122 121 120 120 123 120 114 114 121 128 116 131 129 120 121 118 116 121 121 123 120 121 126 124 113 104 94 107 134 136 128 129 133 129
139 138 143 144 142 135 132 134 128 124 126 130 126 128 124 120 124 119 133 132 131 125 123 119 119 120 120 120 122 126 128 121 121 110 103 73 114 125 131 130 135 140 129
135 137 145 143 143 140 139 135 135 129 130 127 134 134 126 129 133 136 134 135 132 129 128 129 127 128 123 111 106 120 124 120 131 117 86 5 126 136 138 140 150 136 140
135 141 142 144 145 142 146 144 141 137 141 135 133 136 135 133 137 134 135 138 140 135 142 135 136 131 128 118 117 111 94 105 187 172 165 177 149 147 142 144 150 148 144
140 146 145 148 150 149 148 149 149 144 145 151 147 142 141 139 143 145 141 142 142 144 147 143 148 141 136 133 130 106 84 349 324 128 139 149 171 146 151 155 145 148 152
143 144 149 151 155 156 156 157 157 149 147 148 142 146 149 149 149 149 151 151 150 158 157 153 153 158 165 193 167 98 74 27 87 126 147 155 171 159 152 156 160 164 166
142 146 150 156 160 162 161 164 155 152 156 159 157 159 155 153 156 158 165 167 164 165 170 168 171 175 187 230 277 291 86 55 92 142 167 173 169 171 165 165 172 177 177
144 142 145 160 159 158 166 163 162 165 168 170 170 171 168 170 170 171 177 183 174 179 185 185 184 190 195 218 248 282 283 318 136 184 181 202 184 183 176 170 176 187 186
142 150 147 158 159 163 173 175 173 174 178 180 176 175 176 173 180 187 178 200 193 192 198 202 201 202 207 215 232 250 258 197 197 199 191 196 194 192 187 179 179 183 192
158 167 169 168 173 180 187 197 184 191 190 189 175 200 185 194 200 193 197 200 210 212 212 218 222 221 218 205 241 248 229 200 195 225 216 193 192 199 195 192 189 190 194
171 169 177 179 183 185 199 185 179 198 202 200 195 199 207 200 214 189 198 230 233 247 239 238 246 231 210 200 222 231 242 216 196 222 230 203 195 198 202 201 199 195 196
172 181 180 185 185 191 192 188 195 201 209 209 212 209 202 205 211 197 209 225 225 207 203 226 228 240 227 205 209 229 236 215 192 215 236 214 201 205 205 211 211 204 201
177 183 183 186 192 193 187 172 176 206 216 222 200 212 209 202 207 208 213 234 215 204 216 225 226 231 224 227 231 213 229 219 208 193 205 231 210 249 227 221 218 212 209
182 183 182 187 187 187 189 169 180 210 210 199 207 214 211 212 200 204 207 232 239 207 218 218 221 220 233 223 232 228 218 223 205 196 212 206 206 222 225 221 218 216 214
160 191 180 176 174 179 186 180 176 204 184 196 209 209 217 202 215 218 220 200 236 231 223 223 232 225 238 243 243 237 233 221 216 186 211 208 215 227 221 220 224 217 214
133 167 170 175 173 171 172 186 190 177 171 217 209 201 29 328 271 273 237 233 228 212 215 226 208 236 235 233 251 249 241 232 226 202 194 205 216 219 220 218 223 221 220
159 148 144 158 165 162 169 199 207 226 211 187 120 142 154 316 237 249 234 225 241 251 215 217 220 218 226 235 238 243 244 244 242 242 219 210 220 220 209 218 224 222 222
147 142 142 152 161 153 132 202 281 301 343 46 75 170 182 220 262 255 261 147 81 310 292 211 218 204 234 246 243 246 243 240 244 233 237 233 223 224 218 216 221 224 223
147 149 166 166 176 148 137 174 203 216 242 152 156 147 199 228 247 250 267 153 168 190 238 247 271 256 257 251 274 240 240 240 240 236 228 229 231 220 214 217 214 215 223
173 153 175 184 190 173 157 200 155 175 137 232 190 213 214 193 171 125 55 337 243 299 321 310 215 286 260 188 236 238 274 281 233 236 222 219 227 218 214 215 210 207 210
184 172 182 194 183 179 183 124 83 41 38 359 331 265 258 213 168 90 311 268 302 312 304 305 269 249 275 254 219 222 253 237 308 186 226 222 216 203 211 224 214 214 210
194 173 164 183 189 190 179 176 157 178 179 241 239 242 252 74 281 294 257 19 323 317 302 287 273 255 245 276 255 229 243 223 224 325 328 238 219 230 223 206 228 222 219
184 182 176 173 189 181 169 156 150 139 140 355 43 50 319 18 187 4 53 35 349 300 285 282 299 289 261 266 283 254 227 236 237 223 261 284 189 222 229 224 221 223 221
178 169 173 176 184 169 157 144 145 162 159 89 70 86 62 77 75 52 38 360 312 303 315 317 302 288 284 284 303 291 232 209 215 215 239 258 240 263 236 226 218 213 191